Simultaneous Nadir Overpasses (SNOs) Predictions

Prediction of SNOs between AQUA and GOES-15 Satellite Orbit:

Table of predicted SNOs for the next 14.0 days since TLE Epoch: 6/20/2014
Index Date Time (AQUA) AQUA Lat,Lon GOES-15 Lat,Lon Distance(km) Time Diff (sec)
1 06/22/2014 10:38:27 -0.02,-135.66 -0.07,-135.46 22.82 80
2 06/24/2014 10:26:14 -0.66,-132.70 -0.07,-135.46 313.84 80
3 06/24/2014 22:47:37 -0.43,-137.89 0.08,-135.45 277.51 80
4 06/26/2014 22:35:23 0.17,-134.92 0.09,-135.44 58.72 80
5 06/28/2014 22:23:11 0.84,-131.96 0.08,-135.43 394.53 80
6 06/29/2014 10:44:25 0.24,-137.12 -0.10,-135.43 191.53 80
7 07/01/2014 10:32:11 -0.38,-134.16 -0.10,-135.42 143.92 80
8 07/01/2014 22:53:35 -0.70,-139.35 0.11,-135.41 447.83 80
9 07/03/2014 10:19:57 -1.01,-131.19 -0.09,-135.40 478.98 80
10 07/03/2014 22:41:20 -0.13,-136.37 0.11,-135.39 112.89 80




NCC Satellite Simultaneous Nadir Overpasses (SNOs) Prediction Service
